Regional Weather Roundup
Issued by NWS

Home | Current Version | Previous Version | Graphics & Text | Print | Product List | Glossary On
Versions: 1 2 3 4 5 6 7 8 9 10 11 12 13 14 15 16 17 18 19 20 21 22 23 24 25 26 27 28 29 30 31 32 33 34 35 36 37 38 39 40 41 42 43 44 45 46 47 48 49 50
000
ASUS45 KBOU 190607
RWRCO

WEATHER ROUNDUP FOR COLORADO
NATIONAL WEATHER SERVICE DENVER/BOULDER CO
1100 PM MST THU DEC 18 2014

NOTE: "FAIR" INDICATES FEW OR NO CLOUDS BELOW 12000 FEET WITH NO
SIGNIFICANT WEATHER AND/OR OBSTRUCTIONS TO VISIBILITY.

COZ001>005-013-030-031-190700-
...NORTHWEST COLORADO...

CITY           SKY/WX    TMP DP  RH WIND       PRES   REMARKS
CRAIG          HAZE      23  18  81 CALM      30.20S VSB 3/4
HAYDEN         MOCLDY    12  10  92 CALM      30.17S
MEEKER         CLOUDY    20  16  84 CALM      30.20R FOG
MOUNT WERNER   NOT AVBL
STEAMBOAT SPGS CLOUDY    15  14  94 CALM      30.18R
WALDEN         PTCLDY     1  -4  78 CALM      30.13R
$$

COZ006>008-011-190700-
...WEST CENTRAL VALLEYS...

CITY           SKY/WX    TMP DP  RH WIND       PRES   REMARKS
GRAND JUNCTION CLOUDY    31  30  96 NE3       30.20R
MONTROSE       CLOUDY    32  31  96 SE5       30.21S WCI  27
EAGLE          FLURRIES  25  25 100 CALM      30.20R
RIFLE          CLOUDY    31  29  92 SE6       30.20R WCI  25
DELTA          CLOUDY    33  31  91 CALM      30.21S
NUCLA          CLOUDY    32  32 100 CALM      30.24R
$$

COZ017>023-064>068-190700-
...SOUTHWEST COLORADO...

CITY           SKY/WX    TMP DP  RH WIND       PRES   REMARKS
DURANGO        PTCLDY    26  24  92 W3        30.15R
CORTEZ         CLEAR     24  22  91 NE6       30.19R WCI  17
PAGOSA SPRINGS CLOUDY    25  24  96 CALM      30.15S
TELLURIDE      FLURRIES  21  15  78 CALM      30.18R
WOLF CREEK PAS CLEAR      9   9 100 MISG      30.09S
$$

COZ009-010-012-014-032>034-037-058>063-190700-
...CENTRAL COLORADO...

CITY           SKY/WX    TMP DP  RH WIND       PRES   REMARKS
ASPEN          LGT SNOW  25  24  96 CALM      30.14S FOG
BUENA VISTA    PTCLDY    19  11  74 SW6       30.12R WCI  10
COPPER MTN     CLOUDY    14   9  79 MISG      30.09R
BERTHOUD PASS  CLOUDY     5   1  85 MISG      30.06S
COTTONWOOD PAS PTCLDY    23  12  63 N5        30.10R WCI  17
GUNNISON       PTCLDY    14  10  85 CALM      30.19R
KREMMLING      CLOUDY    14  10  85 CALM      30.19R
LEADVILLE      FLURRIES  11   6  81 NE8       30.10R WCI  -1
MONARCH PASS   CLOUDY    12   9  85 MISG      30.18R
SALIDA         PTCLDY    23  17  79 CALM      30.19S
SUNLIGHT       LGT SNOW N/A N/A N/A CALM      30.14S
WILKERSON PASS PTCLDY    14   9  79 NW7       30.09S WCI   4
$$

COZ069>075-190700-
...SAN LUIS VALLEY/SANGRE DE CRISTO MOUNTAINS...

CITY           SKY/WX    TMP DP  RH WIND       PRES   REMARKS
ALAMOSA        PTCLDY    15  12  88 CALM      30.13R
LA VETA PASS   CLOUDY    16  14  93 MISG      30.08R
SAGUACHE       PTCLDY    21  16  79 N8        30.14S WCI  12
$$

COZ035-036-038>040-190700-
...NORTHERN COLORADO FRONT RANGE...

CITY           SKY/WX    TMP DP  RH WIND       PRES   REMARKS
DENVER INTL AP MOCLDY    28  25  88 SW10      30.08R WCI  19
DMNS CITY PARK   N/A     31  25  81 S3        30.08S
AURORA         NOT AVBL
FRONT RANGE AP PTCLDY    32  30  93 SW7       30.09R WCI  26
ERIE MUNI ARPT   N/A     21  19  94 CALM      30.10R
BOULDER MUN AP CLEAR     30  27  86 CALM      30.09S
CENTENNIAL     PTCLDY    28  26  92 S5        30.08R FOG     WCI  23
BROOMFIELD     CLEAR     32  27  80 N8        30.09R WCI  25
FORT COLLINS   CLEAR     27  21  80 CALM      30.12R
LONGMONT       CLEAR     24  20  84 CALM      30.12S
$$

COZ041-046-047-076>085-087-088-190700-
...PIKES PEAK/PALMER DIVIDE AND SOUTHERN FOOTHILLS...

CITY           SKY/WX    TMP DP  RH WIND       PRES   REMARKS
COLO. SPRINGS  MOCLDY    30  20  66 NE5       30.12R WCI  25
A. F. ACADEMY  CLOUDY    29  21  74 SE5       30.10S WCI  23
ELLICOTT       NOT AVBL
FALCON         CLOUDY    27  22  81 W5        30.11S WCI  22
FORT CARSON    CLOUDY    29  24  81 N2        30.11R
LIMON          CLEAR     16  13  88 CALM      30.11S
MONUMENT HILL  CLOUDY    27  25  93 S8        30.07S WCI  18
TRINIDAD       CLOUDY    33  28  81 W3        30.09R
$$

COZ042>045-048>051-090-091-190700-
...NORTHEAST COLORADO...

CITY           SKY/WX    TMP DP  RH WIND       PRES   REMARKS
GREELEY ARPT   PTCLDY    19  12  73 NW9       30.10R WCI   9
AKRON          MOCLDY    28  20  71 SW8       30.09S WCI  20
BURLINGTON     PTCLDY    24  19  81 SW8       30.12R WCI  15
WRAY           MOCLDY    20  19  93 W6        30.12R WCI  13
STERLING       PTCLDY    19  18  93 S3        30.11S
HOLYOKE        NOT AVBL
FORT MORGAN    PTCLDY    24  19  80 CALM      30.10S
$$

COZ086-089-092>099-190700-
...SOUTHEAST COLORADO...

CITY           SKY/WX    TMP DP  RH WIND       PRES   REMARKS
PUEBLO         CLOUDY    26  22  84 N6        30.12R WCI  19
LA JUNTA       MOCLDY    29  27  92 N5        30.12S WCI  24
LAMAR          CLEAR     27  25  92 CALM      30.12S FOG
SPRINGFIELD      N/A     27  25  92 CALM      30.11R
$$



USA.gov is the U.S. government's official web portal to all federal, state and local government web resources and services.